Location: Follega
(52.8850°N, 5.7362°E)
Time: 04:37:39
(UTC+00:00)

Cosmos 2297 Rocket - Pass Details

Date: 08 October 2020
Orbit: 838 x 845 km, 71.0° (Epoch: 26 October)

Event Time Altitude Azimuth Distance (km) Brightness Sun altitude
Rises 22:46:57 0° 322° (NW) 3,417 6.0 -42.8°
Reaches altitude 10° 22:49:50 10° 309° (NW) 2,477 5.0 -42.9°
Enters shadow 22:50:06 11° 307° (NW) 2,397 4.9 -42.9°
